| time (UTC) | temp C | wind direction | speed KPH | gust KPH | rain 1hr cm | rain 24hr cm | rain mn cm | humidity % | barometer mb |
| 20260901110049 | 7 | 286 | 0.0 | 0.0 | 0.00 | 0.00 | 0.00 | 80 | 1015.9 |
| 20260901104557 | 7 | 286 | 0.0 | 0.0 | 0.00 | 0.00 | 0.00 | 80 | 1016.0 |
| 20260901103046 | 6 | 286 | 0.0 | 0.0 | 0.00 | 0.00 | 0.00 | 81 | 1016.2 |
| 20260901101547 | 7 | 286 | 0.0 | 0.0 | 0.00 | 0.00 | 0.00 | 80 | 1016.2 |
| 20260901100058 | 6 | 286 | 0.0 | 0.0 | 0.00 | 0.00 | 0.00 | 80 | 1016.2 |
| 20260901094539 | 7 | 286 | 0.0 | 0.0 | 0.00 | 0.00 | 0.00 | 79 | 1016.2 |
| 20260901093038 | 7 | 258 | 0.0 | 0.0 | 0.00 | 0.00 | 0.00 | 78 | 1016.2 |
| 20260901091539 | 7 | 251 | 0.0 | 0.0 | 0.00 | 0.00 | 0.00 | 78 | 1016.2 |
| 20260901090012 | 7 | 251 | 0.0 | 0.0 | 0.00 | 0.00 | 0.00 | 77 | 1016.2 |
| 20260901084506 | 7 | 246 | 0.0 | 0.0 | 0.00 | 0.00 | 0.00 | 77 | 1016.2 |
| 20260901083002 | 7 | 246 | 0.0 | 0.0 | 0.00 | 0.00 | 0.00 | 74 | 1016.2 |
| 20260901081603 | 8 | 246 | 0.0 | 0.0 | 0.00 | 0.00 | 0.00 | 75 | 1016.3 |
| 20260901080100 | 7 | 264 | 0.0 | 0.0 | 0.00 | 0.00 | 0.00 | 76 | 1016.4 |
| 20260901074557 | 7 | 285 | 0.0 | 0.0 | 0.00 | 0.00 | 0.00 | 75 | 1016.5 |
| 20260901073054 | 7 | 285 | 0.0 | 0.0 | 0.00 | 0.00 | 0.00 | 76 | 1016.6 |
| 20260901071553 | 7 | 251 | 0.0 | 0.0 | 0.00 | 0.00 | 0.00 | 76 | 1016.6 |
| 20260901070057 | 7 | 295 | 0.0 | 0.0 | 0.00 | 0.00 | 0.00 | 76 | 1016.6 |
| 20260901064550 | 7 | 295 | 0.0 | 0.0 | 0.00 | 0.00 | 0.00 | 76 | 1016.7 |
| 20260901063046 | 7 | 295 | 0.0 | 0.0 | 0.00 | 0.00 | 0.00 | 79 | 1016.7 |
| 20260901061543 | 7 | 295 | 0.0 | 0.0 | 0.00 | 0.00 | 0.00 | 77 | 1016.6 |
| 20260901060042 | 8 | 295 | 0.0 | 0.0 | 0.00 | 0.00 | 0.00 | 73 | 1016.8 |
| 20260901054541 | 8 | 295 | 0.0 | 0.0 | 0.00 | 0.00 | 0.00 | 74 | 1016.8 |
| 20260901053035 | 8 | 296 | 0.0 | 0.0 | 0.00 | 0.00 | 0.00 | 73 | 1016.9 |
| 20260901051541 | 8 | 298 | 0.0 | 0.0 | 0.00 | 0.00 | 0.00 | 71 | 1016.9 |
| 20260901050034 | 8 | 287 | 0.0 | 0.0 | 0.00 | 0.00 | 0.00 | 71 | 1016.9 |
| 20260901044540 | 9 | 279 | 0.0 | 0.0 | 0.00 | 0.00 | 0.00 | 70 | 1016.9 |
| 20260901043031 | 9 | 262 | 0.0 | 0.0 | 0.00 | 0.00 | 0.00 | 69 | 1016.9 |
| 20260901041530 | 9 | 215 | 0.0 | 0.0 | 0.00 | 0.00 | 0.00 | 70 | 1016.9 |
| 20260901040035 | 9 | 176 | 0.0 | 0.0 | 0.00 | 0.00 | 0.00 | 70 | 1016.7 |
| 20260901034529 | 10 | 176 | 0.0 | 0.0 | 0.00 | 0.00 | 0.00 | 68 | 1016.6 |
| 20260901033027 | 11 | 176 | 0.0 | 0.0 | 0.00 | 0.00 | 0.00 | 64 | 1016.4 |
| 20260901031526 | 11 | 176 | 0.0 | 0.0 | 0.00 | 0.00 | 0.00 | 63 | 1016.3 |
| 20260901030025 | 13 | 176 | 0.0 | 0.0 | 0.00 | 0.00 | 0.00 | 57 | 1016.2 |
| 20260901024528 | 15 | 176 | 0.0 | 0.0 | 0.00 | 0.00 | 0.00 | 53 | 1016.0 |
| 20260901023023 | 16 | 176 | 0.0 | 0.0 | 0.00 | 0.00 | 0.00 | 46 | 1016.0 |
| 20260901021521 | 17 | 136 | 0.0 | 1.6 | 0.00 | 0.00 | 0.00 | 43 | 1016.0 |
| 20260901020021 | 19 | 162 | 0.0 | 1.6 | 0.00 | 0.00 | 0.00 | 41 | 1016.0 |
| 20260901014520 | 20 | 162 | 0.0 | 1.6 | 0.00 | 0.00 | 0.00 | 38 | 1016.0 |
| 20260901013021 | 21 | 162 | 0.0 | 4.8 | 0.00 | 0.00 | 0.00 | 36 | 1016.1 |
| 20260901011520 | 22 | 179 | 0.0 | 3.2 | 0.00 | 0.00 | 0.00 | 35 | 1016.1 |
| 20260901010017 | 22 | 255 | 0.0 | 0.0 | 0.00 | 0.00 | 0.00 | 33 | 1016.3 |
| 20260901004530 | 23 | 240 | 0.0 | 3.2 | 0.00 | 0.00 | 0.00 | 32 | 1016.4 |
| 20260901003020 | 23 | 326 | 0.0 | 3.2 | 0.00 | 0.00 | 0.00 | 32 | 1016.4 |
| 20260901001523 | 24 | 152 | 1.6 | 4.8 | 0.00 | 0.00 | 0.00 | 31 | 1016.5 |
| 20260901000015 | 23 | 191 | 1.6 | 14.5 | 0.00 | 0.00 | 0.00 | 33 | 1016.5 |
| 20260831234512 | 24 | 292 | 1.6 | 6.4 | 0.00 | 0.00 | 0.00 | 31 | 1016.5 |
| 20260831233009 | 24 | 228 | 0.0 | 11.3 | 0.00 | 0.00 | 0.00 | 32 | 1016.5 |
| 20260831231505 | 24 | 243 | 3.2 | 9.7 | 0.00 | 0.00 | 0.00 | 32 | 1016.6 |
| 20260831230005 | 24 | 254 | 1.6 | 9.7 | 0.00 | 0.00 | 0.00 | 33 | 1016.7 |
| 20260831224503 | 23 | 248 | 3.2 | 6.4 | 0.00 | 0.00 | 0.00 | 34 | 1016.8 |
| 20260831223003 | 24 | 199 | 1.6 | 6.4 | 0.00 | 0.00 | 0.00 | 34 | 1016.9 |
| 20260831221557 | 23 | 249 | 3.2 | 9.7 | 0.00 | 0.00 | 0.00 | 35 | 1016.9 |
| 20260831220158 | 23 | 276 | 4.8 | 19.3 | 0.00 | 0.00 | 0.00 | 35 | 1016.9 |
| 20260831214622 | 23 | 226 | 4.8 | 16.1 | 0.00 | 0.00 | 0.00 | 35 | 1016.9 |
| 20260831213053 | 23 | 288 | 4.8 | 9.7 | 0.00 | 0.00 | 0.00 | 37 | 1017.0 |
| 20260831211523 | 23 | 307 | 4.8 | 11.3 | 0.00 | 0.00 | 0.00 | 37 | 1017.1 |
| 20260831210019 | 22 | 338 | 1.6 | 12.9 | 0.00 | 0.00 | 0.00 | 38 | 1017.2 |
| 20260831204517 | 22 | 320 | 4.8 | 11.3 | 0.00 | 0.00 | 0.00 | 37 | 1017.3 |
| 20260831203014 | 22 | 252 | 1.6 | 9.7 | 0.00 | 0.00 | 0.00 | 38 | 1017.4 |
| 20260831201523 | 22 | 2 | 6.4 | 14.5 | 0.00 | 0.00 | 0.00 | 38 | 1017.5 |
| 20260831200025 | 21 | 288 | 3.2 | 11.3 | 0.00 | 0.00 | 0.00 | 38 | 1017.6 |
| 20260831194545 | 22 | 309 | 4.8 | 14.5 | 0.00 | 0.00 | 0.00 | 39 | 1017.8 |
| 20260831193042 | 22 | 293 | 4.8 | 12.9 | 0.00 | 0.00 | 0.00 | 39 | 1017.8 |
| 20260831191536 | 21 | 314 | 4.8 | 19.3 | 0.00 | 0.00 | 0.00 | 40 | 1017.9 |
| 20260831190049 | 21 | 259 | 1.6 | 11.3 | 0.00 | 0.00 | 0.00 | 40 | 1018.2 |
| 20260831184533 | 21 | 8 | 6.4 | 16.1 | 0.00 | 0.00 | 0.00 | 41 | 1018.3 |
| 20260831183045 | 21 | 303 | 1.6 | 16.1 | 0.00 | 0.00 | 0.00 | 42 | 1018.5 |
| 20260831181528 | 20 | 53 | 3.2 | 14.5 | 0.00 | 0.00 | 0.00 | 42 | 1018.5 |
| 20260831180025 | 20 | 37 | 8.0 | 22.5 | 0.00 | 0.00 | 0.00 | 42 | 1018.6 |
| 20260831174524 | 20 | 1 | 6.4 | 24.1 | 0.00 | 0.00 | 0.00 | 44 | 1018.7 |
| 20260831173022 | 20 | 22 | 8.0 | 17.7 | 0.00 | 0.00 | 0.00 | 45 | 1018.7 |
| 20260831171519 | 19 | 229 | 3.2 | 9.7 | 0.00 | 0.00 | 0.00 | 45 | 1018.7 |
| 20260831170018 | 19 | 281 | 1.6 | 14.5 | 0.00 | 0.00 | 0.00 | 48 | 1018.7 |
| 20260831164513 | 18 | 321 | 1.6 | 11.3 | 0.00 | 0.00 | 0.00 | 48 | 1018.7 |
| 20260831163033 | 18 | 323 | 1.6 | 9.7 | 0.00 | 0.00 | 0.00 | 50 | 1018.7 |
| 20260831161512 | 17 | 262 | 3.2 | 11.3 | 0.00 | 0.00 | 0.00 | 50 | 1018.6 |
| 20260831160007 | 17 | 327 | 0.0 | 6.4 | 0.00 | 0.00 | 0.00 | 51 | 1018.6 |
| 20260831154618 | 16 | 285 | 1.6 | 12.9 | 0.00 | 0.00 | 0.00 | 51 | 1018.5 |
| 20260831153056 | 16 | 261 | 3.2 | 14.5 | 0.00 | 0.00 | 0.00 | 52 | 1018.4 |
| 20260831151551 | 15 | 304 | 3.2 | 14.5 | 0.00 | 0.00 | 0.00 | 54 | 1018.3 |
| 20260831150047 | 15 | 314 | 1.6 | 9.7 | 0.00 | 0.00 | 0.00 | 56 | 1018.4 |
| 20260831144544 | 14 | 244 | 3.2 | 8.0 | 0.00 | 0.00 | 0.00 | 57 | 1018.2 |
| 20260831143039 | 13 | 271 | 0.0 | 3.2 | 0.00 | 0.00 | 0.00 | 60 | 1018.1 |
| 20260831141534 | 12 | 268 | 0.0 | 3.2 | 0.00 | 0.00 | 0.00 | 61 | 1018.0 |
| 20260831140038 | 12 | 295 | 0.0 | 3.2 | 0.00 | 0.00 | 0.00 | 64 | 1017.8 |
| 20260831134527 | 11 | 314 | 0.0 | 8.0 | 0.00 | 0.00 | 0.00 | 64 | 1017.6 |
| 20260831133022 | 10 | 316 | 0.0 | 3.2 | 0.00 | 0.00 | 0.00 | 68 | 1017.6 |
| 20260831131530 | 9 | 257 | 0.0 | 1.6 | 0.00 | 0.00 | 0.00 | 71 | 1017.3 |
| 20260831130032 | 8 | 279 | 0.0 | 3.2 | 0.00 | 0.00 | 0.00 | 75 | 1017.1 |
| 20260831124517 | 7 | 290 | 0.0 | 1.6 | 0.00 | 0.00 | 0.00 | 77 | 1016.9 |
| 20260831123013 | 7 | 288 | 0.0 | 3.2 | 0.00 | 0.00 | 0.00 | 77 | 1016.8 |
| 20260831121515 | 7 | 284 | 0.0 | 1.6 | 0.00 | 0.00 | 0.00 | 79 | 1016.7 |
| 20260831120009 | 6 | 234 | 0.0 | 4.8 | 0.00 | 0.00 | 0.00 | 81 | 1016.5 |
| 20260831114506 | 6 | 293 | 0.0 | 0.0 | 0.00 | 0.00 | 0.00 | 78 | 1016.5 |
| 20260831113004 | 7 | 293 | 0.0 | 0.0 | 0.00 | 0.00 | 0.00 | 76 | 1016.4 |
| 20260831111507 | 7 | 274 | 0.0 | 4.8 | 0.00 | 0.00 | 0.00 | 75 | 1016.3 |